Regional Weather Roundup
Issued by NWS Charleston, SC

Current Version | Previous Version | Graphics & Text | Print | Product List | Glossary On
Versions: 1 2 3 4 5 6 7 8 9 10 11 12 13 14 15 16 17 18 19 20 21 22 23 24 25 26 27 28 29 30 31 32 33 34 35 36 37 38 39 40 41 42 43 44 45 46 47 48 49 50
391 ASUS42 KCHS 100712 RWRCHS REGIONAL WEATHER ROUNDUP NATIONAL WEATHER SERVICE CHARLESTON SC 200 AM EST WED FEB 10 2016 NOTE: "FAIR" INDICATES FEW OR NO CLOUDS BELOW 12,000 FEET WITH NO SIGNIFICANT WEATHER AND/OR OBSTRUCTIONS TO VISIBILITY. NOT ALL STATIONS ARE QUALITY CONTROLLED BY THE NATIONAL WEATHER SERVICE. USE DATA WITH CAUTION...ESPECIALLY DEWPOINT OBSERVATIONS. SCZ027-030-031-034>040-042>050-100800- ...SOUTHEAST SOUTH CAROLINA... CITY SKY/WX TMP DP RH WIND PRES REMARKS N CHARLESTON CLEAR 34 18 52 W10 29.97S WCI 26 WATERFRONT PRK N/A 36 20 52 W6 29.82S WCI 31 MOUNT PLEASANT FAIR 36 21 55 W9G16 29.97S WCI 29 JOHNS ISLAND FAIR 36 18 48 W12G18 29.98S WCI 27 PINOPOLIS N/A 36 21 55 W16 29.88S WCI 26 MONCKS CORNER FAIR 30 16 55 W3 29.95F SUMMERVILLE FAIR 32 23 69 W9G16 29.98S WCI 24 BEAUFORT MCAS CLEAR 34 19 54 W10G20 30.01S WCI 26 BEAUFORT ARPT FAIR 34 21 60 W13 30.01S WCI 25 HILTON HEAD IS CLEAR 36 21 55 W7 30.04R WCI 30 WALTERBORO SUNNY 34 19 55 W9 29.99S WCI 26 ALLENDALE FAIR 32 19 59 CALM 29.99S ...SOUTHERN MIDLANDS AND PEE DEE... CITY SKY/WX TMP DP RH WIND PRES REMARKS GEORGETOWN NOT AVBL KINGSTREE NOT AVBL ORANGEBURG PTCLDY 31 17 56 W9 29.95S WCI 23 BARNWELL FAIR 32 18 55 W9 29.98S WCI 24 AIKEN FAIR 28 16 59 W9 29.97F WCI 20 MANNING FAIR 32 19 59 W7 29.95S WCI 26 COLUMBIA PTCLDY 30 17 58 W10 29.93S WCI 21 SUMTER PTCLDY 30 20 65 W9 29.90S WCI 22 FLORENCE CLOUDY 34 24 67 W8 29.90S WCI 27 MYRTLE BEACH PTCLDY 36 19 51 W9G17 29.93S WCI 29 N MYRTLE BEACH MOCLDY 36 24 62 W10 29.90R WCI 28 $$ GAZ063-065-086>088-099>101-113>116-118-119-134>141-150-100800- ...SOUTHEAST GEORGIA... CITY SKY/WX TMP DP RH WIND PRES REMARKS SAVANNAH ARPT PTCLDY 30 20 66 W6 30.04S WCI 24 HUNTER AAF PTCLDY 30 21 69 W6 30.02R WCI 24 FORT STEWART CLEAR 31 23 72 SW5 30.04R WCI 26 STATESBORO CLEAR 35 19 51 W9 30.03S WCI 28 SYLVANIA SUNNY 33 24 70 W8 30.02S WCI 26 CLAXTON FAIR 32 25 76 SW5 30.05S WCI 28 ...CSRA...CENTRAL AND FAR SOUTHEAST GEORGIA... CITY SKY/WX TMP DP RH WIND PRES REMARKS THOMSON CLEAR 30 21 68 W7 30.03S WCI 24 AUGUSTA-BUSH CLEAR 29 15 56 W10 29.99S WCI 20 AUGUSTA-DANIEL PTCLDY 30 13 49 VRB7 29.98R WCI 23 SWAINSBORO FAIR 30 23 74 W3 30.03S VIDALIA PTCLDY 32 25 74 W5 30.04S WCI 27 EASTMAN PTSUNNY 31 24 73 CALM 30.09R HAZLEHURST FAIR 32 27 82 CALM 30.05S ALMA PTCLDY 31 25 78 SW3 30.07S WAYCROSS CLEAR 35 29 78 W3 30.08S JESUP FAIR 34 30 86 CALM 30.07S BAXLEY FAIR 32 28 86 SW3 30.06S BRUNSWICK PTCLDY 34 28 80 W5 30.08S WCI 30 SAINT SIMONS CLEAR 36 25 64 W6 30.07R WCI 31 $$ SCZ027-028-034-036>038-045-046-048>050-GAZ119-141-100800- ...LAKE AND SUPPLEMENTAL COASTAL OBSERVATIONS... STATION/POSITION TIME TEMP WIND PRES WAVE SWELL AIR SEA DIR/SP/G HT/PER HT/PER/DIR (UTC) (F) (DEG/KT/KT) (MB) (FT/S) (FT/S/D) WINYAH BAY NOT AVBL LAKE MURRAY 0600 33 260/ 15/ 20 1012.5S ACE BASIN NERRS NOT AVBL FORT PULASKI 0600 38 51 280/ 15/ 18 1017.0S SAPELO ISLAND 0600 38 280/ 6 1018.0S $$ ANZ835-935-AMZ111-154-330-350-352-354-370-450-454-472-100800- ...C-MAN AND BUOY OBSERVATIONS... STATION/POSITION TIME TEMP WIND PRES WAVE SWELL AIR SEA DIR/SP/G HT/PER HT/PER/DIR (UTC) (F) (DEG/KT/KT) (MB) (FT/S) (FT/S/D) BUOY 41004 0650 43 64 280/ 29/ 39 1013.6R 8/ 7 2/12 BUOY 41008 0650 42 54 300/ 19/ 25 1017.7R 3/ 4 FOLLY BEACH CMAN 0600 36 260/ 9/ 13 1015.2R CAPERS NEARSHORE 0608 39 280/ 21/ 31 1013.9F FRIPP NEARSHORE 0600 40 320/ 17/ 19 1015.8S STATION/POSITION TIME TEMP WIND PRES WAVE SWELL AIR SEA DIR/SP/G HT/PER HT/PER/DIR (UTC) (F) (DEG/KT/KT) (MB) (FT/S) (FT/S/D) 5E ST. MARYS GA 0621 56 N/A 3/15 2/ 90/15 FRYING PAN BUOY 0600 44 57 270/ 25/ 31 1011.8F BUOY 41025 0650 45 73 290/ 21/ 27 1008.1F 9/ 7 5/ 90/14 CAPE LOOKOUT NC NOT AVBL BUOY 41002 0650 54 68 300/ 23/ 29 N/A 20/11 18/270/11 BUOY 41010 0620 60 72 1015.5R ST AUGUSTINE FL 0700 41 56 300/ 6/ 8 1019.9R $$

USA.gov is the U.S. government's official web portal to all federal, state and local government web resources and services.